#timestamp,LO_Frequency,Hit,StdDev 
1551042015.4,286046997.3,N
1551042035.3,286046994.9,N
1551042055.1,286046996.3,N
1551042075.8,286046997.5,N
1551042095.7,286046998.8,N
1551042115.5,286046998.4,N
1551042135.4,286046999.6,N
1551042155.2,286046999.6,N
1551042175.0,286046999.0,N
1551042175.9,286046999.0,N
1551042195.8,286046996.9,N
1551042215.6,286046997.7,N
1551042235.5,286046997.0,N
1551042255.3,286046998.8,N
1551042275.1,286046999.5,N
1551042295.9,286046999.2,N
1551042315.7,286046996.5,N
1551042335.6,286046999.5,N
1551042355.4,286046999.5,N
1551042375.2,286046998.0,N
1551042395.1,286046995.2,Y
1551042396.0,286046995.2,P
1551042415.8,286046999.2,N
1551042435.6,286046999.1,N
1551042455.5,286046998.1,N
1551042475.3,286046999.0,N
1551042495.2,286046998.6,N
1551042515.9,286046999.5,N
1551042535.7,286046997.4,N
1551042555.6,286046996.9,N
1551042575.4,286046997.2,N
1551042595.2,286046996.5,N
1551042615.1,286046999.1,N
1551042616.0,286046999.1,N
1551042635.8,286047000.9,N
1551042655.7,286047001.1,N
1551042675.5,286047001.0,N
1551042695.3,286046998.4,N
1551042715.2,286046999.3,N
1551042735.0,286046998.4,N
1551042735.9,286046998.4,N
1551042755.8,286047001.0,N
1551042775.6,286046996.9,N
1551042795.4,286047000.8,N
1551042815.3,286047000.3,N
1551042835.1,286047000.6,N
1551042855.8,286047001.0,N
1551042875.7,286047000.7,N
1551042895.5,286047002.7,N
1551042915.4,286047002.6,N
1551042935.2,286046999.7,N
1551042955.0,286046999.7,N
1551042955.9,286046999.7,N
1551042975.8,286047001.8,N
1551042995.6,286047002.3,N
1551043015.4,286047000.2,N
1551043035.3,286046998.9,N
1551043055.1,286046998.1,N
1551043075.9,286047000.2,N
1551043095.7,286047000.3,N
1551043115.5,286047001.5,N
1551043135.4,286047002.5,N
1551043155.2,286047005.6,Y
1551043175.0,286047001.7,P
1551043175.9,286047001.7,N
1551043195.8,286047001.5,N
1551043215.6,286047001.5,N
1551043235.5,286047004.1,Y
1551043255.3,286047001.9,P
1551043275.1,286047000.3,N
1551043295.9,286047002.8,P
1551043315.7,286047002.0,N
1551043335.6,286047002.5,N
1551043355.4,286047002.0,N
1551043375.2,286047002.5,Y
1551043395.1,286046998.9,P
1551043396.0,286046998.9,N
1551043415.8,286046996.7,N
1551043435.6,286046997.0,N
1551043455.5,286046999.2,N
1551043475.3,286046998.3,N
1551043495.2,286047000.7,N
1551043515.9,286047001.1,N
1551043535.7,286046999.2,N
1551043555.6,286046996.9,N
1551043575.4,286046997.9,N
1551043595.3,286046995.3,N
1551043615.1,286046995.8,N
1551043616.0,286046995.8,N
1551043635.8,286046995.0,N
1551043655.7,286046996.3,N
1551043675.5,286046996.0,N
1551043695.3,286046995.4,N
1551043715.2,286046997.8,N
1551043735.0,286046996.6,N
1551043735.9,286046996.6,N
1551043755.8,286046999.1,N
1551043775.6,286047000.8,N
1551043795.4,286047000.4,N
1551043815.3,286046996.5,N
1551043835.1,286046996.7,N
1551043855.9,286046999.2,N
1551043875.7,286046997.7,N
1551043895.5,286046997.9,N
1551043915.4,286046995.4,N
1551043935.2,286046993.6,Y
1551043955.0,286046995.0,P
1551043955.9,286046995.0,P
1551043975.8,286046995.2,P
1551043995.6,286046995.7,Y
1551044015.5,286047000.4,P
1551044035.3,286047000.9,N
1551044055.1,286046999.7,N
1551044075.9,286047002.5,N
1551044095.7,286047001.5,N
1551044115.5,286047004.1,N
1551044135.4,286047002.9,N
1551044155.2,286047005.1,N
1551044175.1,286047006.3,N
1551044176.0,286047006.3,N
1551044195.8,286047006.3,N
1551044215.6,286047006.6,N
1551044235.5,286047006.7,N
1551044255.3,286047006.4,N
1551044275.2,286047006.3,N
1551044295.0,286047006.5,N
1551044295.9,286047006.5,N
1551044315.8,286047005.0,N
1551044335.6,286047009.2,Y
1551044355.4,286047002.5,P
1551044375.3,286047001.3,N
1551044395.1,286047003.9,P
1551044415.8,286046998.2,N
1551044435.7,286046996.5,N
1551044455.5,286046996.7,N
1551044475.4,286046997.2,N
1551044495.2,286047001.2,N
1551044515.0,286047000.7,N
1551044515.9,286047000.7,N
1551044535.8,286047000.3,N
1551044555.6,286046999.9,N
1551044575.5,286047002.3,N
1551044595.3,286047000.6,N
1551044615.1,286047000.3,N
1551044635.9,286047000.6,N
1551044655.7,286047002.2,N
1551044675.5,286046999.8,N
1551044695.4,286046998.2,N
1551044715.2,286047000.8,N
1551044735.1,286047002.8,N
1551044736.0,286047002.8,N
1551044755.8,286047000.1,N
1551044775.6,286047001.0,N
1551044795.5,286047000.6,N
1551044815.3,286047000.0,N
1551044835.1,286047002.5,N
1551044855.9,286047003.7,N
1551044875.7,286047003.9,N
1551044895.6,286047003.5,N
1551044915.4,286047003.2,N
1551044935.2,286047001.7,N
1551044955.1,286047001.8,N
1551044956.0,286047001.8,N
1551044975.8,286047000.0,N
1551044995.6,286047002.7,N
1551045015.5,286046999.9,N
1551045035.3,286047002.4,N
1551045055.2,286047000.4,N
1551045075.9,286047000.2,N
1551045095.7,286047000.4,N
1551045115.6,286046999.3,N
1551045135.4,286046997.1,N
1551045155.3,286046994.9,Y
1551045175.1,286046996.3,P
1551045176.0,286046996.3,N
1551045195.8,286046996.1,N
1551045215.7,286046995.0,N
1551045235.5,286046997.5,N
1551045255.3,286047000.2,N
1551045275.2,286047000.3,N
1551045295.0,286047001.2,N
1551045295.9,286047001.2,N
1551045315.8,286046998.6,N
1551045335.6,286046997.2,N
1551045355.4,286046996.9,N
1551045375.3,286046996.6,N
1551045395.1,286046997.5,N
1551045415.8,286046995.5,N
1551045435.7,286046996.2,N
1551045455.5,286046997.2,N
1551045475.4,286046996.9,N
1551045495.2,286046995.2,N
1551045515.0,286046997.8,N
1551045515.9,286046997.8,N
1551045535.8,286046995.7,N
1551045555.6,286046996.4,N
1551045575.5,286046995.8,N
1551045595.3,286046994.9,N
